GW3525 Weather Reports


time (UTC)temp
F
wind
direction
speed
knots
gust
knots
rain 1hr
in
rain 24hr
in
rain mn
in
humidity
%
barometer
mb
20260504050311 56 155 2.6 5.2 0.00 0.00 0.00 71 1004.9
20260504045808 57 109 0.9 4.3 0.00 0.09 0.09 71 1004.8
20260504045304 57 180 1.7 5.2 0.00 0.09 0.09 70 1004.9
20260504044800 57 162 1.7 5.2 0.00 0.09 0.09 70 1004.9
20260504044258 57 190 4.3 6.1 0.00 0.09 0.09 70 1004.9
20260504043755 58 188 8.7 9.6 0.00 0.09 0.09 69 1004.9
20260504043251 58 183 2.6 6.1 0.00 0.09 0.09 68 1004.9
20260504042750 59 195 2.6 7.0 0.00 0.09 0.09 67 1005.1
20260504042245 59 210 7.0 8.7 0.00 0.09 0.09 66 1004.8
20260504041742 60 190 5.2 10.4 0.00 0.09 0.09 65 1004.7
20260504041238 60 192 2.6 8.7 0.00 0.09 0.09 65 1004.6
20260504040734 60 167 4.3 7.0 0.00 0.09 0.09 64 1004.7
20260504040232 60 189 2.6 8.7 0.00 0.09 0.09 63 1004.8
20260504035728 60 191 2.6 8.7 0.00 0.09 0.09 63 1004.7
20260504035225 60 169 2.6 7.8 0.00 0.09 0.09 63 1004.6
20260504034723 60 215 3.5 10.4 0.00 0.09 0.09 62 1004.8
20260504034220 60 149 3.5 7.8 0.00 0.09 0.09 63 1004.7
20260504033717 60 175 6.1 9.6 0.00 0.09 0.09 62 1004.9
20260504033215 60 159 4.3 6.1 0.00 0.09 0.09 62 1004.9
20260504032711 60 206 3.5 7.8 0.00 0.09 0.09 61 1004.9
20260504032209 60 180 1.7 8.7 0.00 0.09 0.09 61 1005.1
20260504031705 60 181 5.2 8.7 0.00 0.09 0.09 61 1005.2
20260504031202 60 161 4.3 7.8 0.00 0.09 0.09 61 1005.0
20260504030658 60 178 4.3 7.0 0.00 0.09 0.09 61 1005.1
20260504030156 60 98 0.9 3.5 0.00 0.09 0.09 61 1005.2
20260504025652 60 162 3.5 5.2 0.00 0.09 0.09 60 1005.2
20260504025149 61 174 3.5 5.2 0.00 0.09 0.09 60 1005.1
20260504024646 61 211 6.1 7.0 0.00 0.09 0.09 59 1004.9
20260504024142 61 212 4.3 5.2 0.00 0.09 0.09 59 1005.1
20260504023639 61 201 5.2 6.1 0.00 0.09 0.09 59 1005.0
20260504023130 61 199 3.5 7.8 0.00 0.09 0.09 59 1005.4
20260504022626 61 161 1.7 6.1 0.00 0.09 0.09 59 1005.4
20260504022121 61 200 4.3 7.0 0.00 0.09 0.09 58 1005.1
20260504021620 61 202 4.3 6.1 0.00 0.09 0.09 58 1005.1
20260504021116 62 188 3.5 9.6 0.00 0.09 0.09 58 1005.0
20260504020614 62 217 5.2 6.1 0.00 0.09 0.09 58 1004.8
20260504020109 62 187 3.5 7.8 0.00 0.09 0.09 58 1004.9
20260504015606 62 209 3.5 5.2 0.00 0.09 0.09 58 1004.9
20260504015102 62 159 2.6 5.2 0.00 0.09 0.09 58 1004.8
20260504014558 62 202 4.3 5.2 0.00 0.09 0.09 58 1004.9
20260504014056 62 214 1.7 5.2 0.00 0.09 0.09 58 1004.8
20260504013553 62 152 1.7 5.2 0.00 0.09 0.09 58 1004.8
20260504013050 62 185 1.7 6.1 0.00 0.09 0.09 57 1004.9
20260504012547 63 196 2.6 5.2 0.00 0.09 0.09 57 1004.4
20260504012045 63 175 2.6 5.2 0.00 0.09 0.09 56 1004.9
20260504011542 63 218 2.6 5.2 0.00 0.09 0.09 57 1004.7
20260504011038 63 170 4.3 5.2 0.00 0.09 0.09 56 1004.6
20260504010533 64 169 3.5 9.6 0.00 0.09 0.09 55 1004.6
20260504010030 64 201 3.5 7.8 0.00 0.09 0.09 55 1004.7
20260504005527 64 163 1.7 8.7 0.00 0.09 0.09 54 1004.6
20260504005024 64 186 2.6 8.7 0.00 0.09 0.09 54 1004.6
20260504004522 64 194 6.1 9.6 0.00 0.09 0.09 53 1004.6
20260504004019 65 204 2.6 7.8 0.00 0.09 0.09 53 1004.6
20260504003515 65 173 1.7 7.8 0.00 0.09 0.09 52 1004.5
20260504003012 65 178 2.6 7.0 0.00 0.09 0.09 52 1004.5
20260504002509 66 223 6.1 7.8 0.00 0.09 0.09 51 1004.5
20260504002006 66 193 2.6 8.7 0.00 0.09 0.09 51 1004.4
20260504001503 66 201 3.5 11.3 0.00 0.09 0.09 51 1004.6
20260504000959 66 190 4.3 7.0 0.00 0.09 0.09 50 1004.7
20260504000457 67 198 3.5 7.8 0.00 0.09 0.09 49 1004.5
20260503235954 67 176 3.5 7.0 0.00 0.09 0.09 48 1004.4
20260503235452 67 243 2.6 9.6 0.00 0.09 0.09 48 1004.6
20260503234949 68 219 4.3 9.6 0.00 0.09 0.09 47 1004.3
20260503234446 68 219 10.4 11.3 0.00 0.09 0.09 46 1004.6
20260503233945 68 202 5.2 14.8 0.00 0.09 0.09 46 1004.6
20260503233440 68 175 5.2 6.1 0.00 0.09 0.09 47 1004.5
20260503232937 68 219 9.6 12.2 0.00 0.09 0.09 45 1004.7
20260503232434 68 214 5.2 11.3 0.00 0.09 0.09 46 1004.7
20260503231932 68 204 4.3 13.0 0.00 0.09 0.09 46 1004.5
20260503231429 68 144 1.7 8.7 0.00 0.09 0.09 46 1004.6
20260503230926 68 2 1.7 8.7 0.00 0.09 0.09 46 1004.8
20260503230422 69 191 7.8 11.3 0.00 0.09 0.09 44 1004.8
20260503225920 69 181 4.3 14.8 0.00 0.09 0.09 44 1004.7
20260503225417 69 193 7.8 10.4 0.00 0.09 0.09 44 1004.8
20260503224912 69 197 2.6 16.5 0.00 0.09 0.09 45 1004.7
20260503224409 69 201 7.0 16.5 0.00 0.09 0.09 44 1004.7
20260503223907 69 186 10.4 12.2 0.00 0.09 0.09 43 1005.1
20260503223405 70 197 3.5 12.2 0.00 0.09 0.09 44 1004.9
20260503222900 70 226 3.5 7.8 0.00 0.09 0.09 45 1005.0
20260503222359 68 217 7.8 20.0 0.00 0.09 0.09 45 1005.1
20260503221856 70 205 7.8 14.8 0.00 0.09 0.09 44 1005.0
20260503221355 70 214 7.8 18.2 0.00 0.09 0.09 43 1005.0
20260503220850 69 223 5.2 18.2 0.00 0.09 0.09 46 1005.1
20260503220347 68 179 8.7 16.5 0.00 0.09 0.09 44 1005.1
20260503215844 68 212 10.4 11.3 0.00 0.09 0.09 44 1005.2
20260503215342 67 205 5.2 10.4 0.00 0.09 0.09 45 1005.1
20260503214839 67 180 2.6 8.7 0.00 0.09 0.09 46 1005.4
20260503214336 68 220 5.2 14.8 0.00 0.09 0.09 44 1005.2
20260503213833 69 207 6.1 14.8 0.00 0.09 0.09 43 1005.1
20260503213331 69 231 11.3 14.8 0.00 0.09 0.09 41 1005.7
20260503212828 69 152 8.7 11.3 0.00 0.09 0.09 43 1005.5
20260503212326 67 209 2.6 13.0 0.00 0.09 0.09 43 1005.7
20260503211823 67 218 0.9 18.2 0.00 0.09 0.09 45 1005.7
20260503211319 69 203 7.0 12.2 0.00 0.09 0.09 41 1005.7
20260503210820 68 200 5.2 20.0 0.00 0.09 0.09 43 1006.0
20260503210317 68 194 7.8 8.7 0.00 0.09 0.09 43 1006.1
20260503205812 67 212 4.3 17.4 0.00 0.09 0.09 43 1006.0
20260503205309 67 208 4.3 7.0 0.00 0.09 0.09 45 1006.4
20260503204805 66 207 3.5 14.8 0.00 0.09 0.09 45 1006.4
20260503204303 66 219 13.9 15.6 0.00 0.09 0.09 44 1006.3
20260503203800 66 218 6.1 16.5 0.00 0.09 0.09 45 1006.5
20260503203257 67 183 5.2 15.6 0.00 0.09 0.09 44 1006.5
20260503202754 66 215 7.8 15.6 0.00 0.09 0.09 45 1006.8
20260503202252 67 190 6.1 14.8 0.00 0.09 0.09 45 1006.9
20260503201750 67 191 5.2 13.9 0.00 0.09 0.09 44 1006.9
20260503201247 67 228 9.6 15.6 0.00 0.09 0.09 42 1007.0
20260503200744 67 229 7.8 22.6 0.00 0.09 0.09 42 1007.1
20260503200240 67 171 13.0 15.6 0.00 0.09 0.09 43 1007.3
20260503195737 65 235 3.5 18.2 0.00 0.09 0.09 42 1007.1
20260503195234 66 178 7.0 15.6 0.00 0.09 0.09 44 1007.4
20260503194732 66 176 7.8 13.0 0.00 0.09 0.09 43 1007.2
20260503194227 64 189 9.6 20.9 0.00 0.09 0.09 42 1007.5
20260503193723 65 197 7.0 22.6 0.00 0.09 0.09 43 1007.5
20260503193219 67 192 11.3 19.1 0.00 0.09 0.09 41 1007.4
20260503192715 66 202 7.8 16.5 0.00 0.09 0.09 43 1007.5
20260503192211 66 228 9.6 20.0 0.00 0.09 0.09 43 1007.7
20260503191708 66 193 5.2 18.2 0.00 0.09 0.09 45 1007.9
20260503191205 65 181 8.7 14.8 0.00 0.09 0.09 48 1007.9
20260503190702 64 199 8.7 20.0 0.00 0.09 0.09 49 1007.7
20260503190158 64 172 4.3 17.4 0.00 0.09 0.09 51 1007.8
20260503185655 63 143 4.3 11.3 0.00 0.09 0.09 56 1007.9
20260503185150 63 195 5.2 10.4 0.00 0.09 0.09 54 1007.9
20260503184645 62 185 7.8 13.0 0.00 0.09 0.09 55 1008.0
20260503184142 62 124 7.8 11.3 0.00 0.09 0.09 57 1008.2
20260503183638 62 202 3.5 22.6 0.00 0.09 0.09 60 1008.0
20260503183136 61 209 2.6 7.8 0.00 0.09 0.09 63 1008.4
20260503182634 60 147 4.3 9.6 0.00 0.09 0.09 65 1008.4
20260503182132 60 199 5.2 16.5 0.00 0.09 0.09 64 1008.6
20260503181629 59 240 5.2 9.6 0.00 0.09 0.09 65 1008.8
20260503181126 59 217 6.1 8.7 0.00 0.09 0.09 66 1008.9
20260503180623 59 105 2.6 9.6 0.00 0.09 0.09 68 1009.0
20260503180121 58 263 3.5 11.3 0.00 0.09 0.09 67 1009.3
20260503175617 58 116 5.2 13.0 0.00 0.09 0.09 69 1009.4
20260503175114 56 98 1.7 7.8 0.00 0.09 0.09 74 1009.4
20260503174611 56 256 3.5 7.0 0.00 0.09 0.09 76 1009.8
20260503174108 54 144 4.3 9.6 0.00 0.09 0.09 80 1009.7
20260503173603 53 160 3.5 12.2 0.00 0.09 0.09 81 1009.9
20260503173100 52 121 3.5 7.0 0.00 0.09 0.09 83 1010.0
20260503172557 50 81 4.3 7.0 0.00 0.09 0.09 85 1010.1
20260503172054 49 94 7.0 9.6 0.00 0.09 0.09 86 1010.4
20260503171550 49 135 1.7 7.0 0.00 0.09 0.09 87 1010.5
20260503171048 48 300 3.5 5.2 0.00 0.09 0.09 89 1010.9
20260503170544 48 120 3.5 7.8 0.00 0.09 0.09 89 1011.4
20260503150925 47 142 0.0 5.2 0.24 0.05 0.05 89 1013.4
20260503150421 47 84 2.6 8.7 0.21 0.04 0.04 86 1013.7
20260503131314 50 193 6.1 12.2 0.00 0.00 0.00 63 1013.2
20260503130812 50 195 6.1 7.0 0.00 0.00 0.00 64 1013.1
20260503130309 49 166 5.2 11.3 0.00 0.00 0.00 64 1013.1
20260503110657 46 175 3.5 13.9 0.00 0.00 0.00 64 1012.8
20260503110154 46 184 5.2 8.7 0.00 0.00 0.00 64 1013.0
20260503100120 47 174 5.2 9.6 0.00 0.00 0.00 62 1013.4
20260503081503 45 180 4.3 5.2 0.00 0.00 0.00 63 1013.9
20260503081001 45 128 3.5 7.0 0.00 0.00 0.00 63 1013.7
20260503080457 45 174 3.5 6.1 0.00 0.00 0.00 62 1013.8
20260503072934 46 192 1.7 3.5 0.00 0.00 0.00 60 1014.0
20260503072431 46 169 1.7 5.2 0.00 0.00 0.00 60 1013.8
20260503071928 46 158 2.6 5.2 0.00 0.00 0.00 60 1014.1
20260503071425 46 156 2.6 6.1 0.00 0.00 0.00 59 1014.1
20260503070921 46 184 3.5 6.1 0.00 0.00 0.00 59 1014.1
20260503070418 46 181 2.6 4.3 0.00 0.00 0.00 59 1014.0
20260503054832 46 196 1.7 4.3 0.00 0.00 0.00 58 1014.6
20260503054327 46 204 2.6 4.3 0.00 0.00 0.00 57 1014.7
20260503053826 46 204 3.5 8.7 0.00 0.00 0.00 57 1014.7
20260503053324 46 171 0.0 6.1 0.00 0.00 0.00 56 1014.9
20260503052820 47 184 2.6 5.2 0.00 0.00 0.00 56 1014.9